| time (UTC) | temp F | wind direction | speed knots | gust knots | rain 1hr in | rain 24hr in | rain mn in | humidity % | barometer mb |
| 20260506015321 | 61 | 207 | 1.7 | 4.3 | 0.00 | 0.00 | 0.00 | 80 | 1010.7 |
| 20260506014818 | 61 | 207 | 6.1 | 7.8 | 0.00 | 0.00 | 0.00 | 79 | 1010.7 |
| 20260506014315 | 61 | 92 | 1.7 | 2.6 | 0.00 | 0.00 | 0.00 | 79 | 1010.8 |
| 20260506013812 | 61 | 228 | 1.7 | 2.6 | 0.00 | 0.00 | 0.00 | 79 | 1010.6 |
| 20260506013309 | 61 | 203 | 4.3 | 6.1 | 0.00 | 0.00 | 0.00 | 79 | 1010.4 |
| 20260506012805 | 61 | 159 | 3.5 | 5.2 | 0.00 | 0.00 | 0.00 | 79 | 1010.5 |
| 20260506012307 | 62 | 252 | 3.5 | 5.2 | 0.00 | 0.00 | 0.00 | 78 | 1010.2 |
| 20260506011800 | 62 | 259 | 6.1 | 8.7 | 0.00 | 0.00 | 0.00 | 78 | 1010.3 |
| 20260506011256 | 62 | 257 | 4.3 | 5.2 | 0.00 | 0.00 | 0.00 | 77 | 1010.2 |
| 20260506010754 | 62 | 220 | 5.2 | 7.0 | 0.00 | 0.00 | 0.00 | 77 | 1010.2 |
| 20260506010251 | 62 | 252 | 6.1 | 8.7 | 0.00 | 0.00 | 0.00 | 77 | 1010.2 |
| 20260506005748 | 62 | 202 | 3.5 | 4.3 | 0.00 | 0.00 | 0.00 | 77 | 1010.1 |
| 20260506005245 | 62 | 149 | 5.2 | 7.8 | 0.00 | 0.00 | 0.00 | 76 | 1010.0 |
| 20260506004741 | 63 | 194 | 5.2 | 7.0 | 0.00 | 0.00 | 0.00 | 75 | 1009.9 |
| 20260506004239 | 64 | 260 | 4.3 | 6.1 | 0.00 | 0.00 | 0.00 | 74 | 1009.9 |
| 20260506003734 | 64 | 246 | 7.8 | 11.3 | 0.00 | 0.00 | 0.00 | 74 | 1010.0 |
| 20260506003231 | 64 | 244 | 4.3 | 6.1 | 0.00 | 0.00 | 0.00 | 73 | 1009.9 |
| 20260506002727 | 65 | 128 | 7.0 | 7.8 | 0.00 | 0.00 | 0.00 | 72 | 1009.6 |
| 20260506002223 | 65 | 247 | 5.2 | 7.8 | 0.00 | 0.00 | 0.00 | 72 | 1009.6 |
| 20260506001719 | 65 | 187 | 4.3 | 6.1 | 0.00 | 0.00 | 0.00 | 71 | 1009.6 |
| 20260506001217 | 65 | 221 | 5.2 | 7.0 | 0.00 | 0.00 | 0.00 | 71 | 1009.6 |
| 20260506000714 | 65 | 296 | 3.5 | 7.0 | 0.00 | 0.00 | 0.00 | 71 | 1009.6 |
| 20260506000212 | 65 | 255 | 10.4 | 12.2 | 0.00 | 0.00 | 0.00 | 71 | 1009.3 |
| 20260505235709 | 65 | 174 | 3.5 | 4.3 | 0.00 | 0.00 | 0.00 | 71 | 1009.4 |
| 20260505235206 | 65 | 178 | 5.2 | 8.7 | 0.00 | 0.00 | 0.00 | 70 | 1009.3 |
| 20260505234703 | 65 | 122 | 3.5 | 5.2 | 0.00 | 0.00 | 0.00 | 70 | 1009.2 |
| 20260505234200 | 65 | 106 | 2.6 | 4.3 | 0.00 | 0.00 | 0.00 | 70 | 1009.1 |
| 20260505233656 | 65 | 224 | 7.8 | 7.8 | 0.00 | 0.00 | 0.00 | 69 | 1008.9 |
| 20260505233155 | 65 | 241 | 3.5 | 5.2 | 0.00 | 0.00 | 0.00 | 70 | 1009.2 |
| 20260505232652 | 65 | 233 | 2.6 | 2.6 | 0.00 | 0.00 | 0.00 | 70 | 1008.7 |
| 20260505232149 | 65 | 199 | 4.3 | 5.2 | 0.00 | 0.00 | 0.00 | 70 | 1008.4 |
| 20260505231646 | 65 | 289 | 4.3 | 6.1 | 0.00 | 0.00 | 0.00 | 71 | 1008.8 |
| 20260505231145 | 64 | 212 | 6.1 | 7.8 | 0.00 | 0.00 | 0.00 | 71 | 1008.8 |
| 20260505230642 | 64 | 251 | 4.3 | 6.1 | 0.00 | 0.00 | 0.00 | 71 | 1008.6 |
| 20260505230139 | 65 | 293 | 3.5 | 6.1 | 0.00 | 0.00 | 0.00 | 71 | 1008.5 |
| 20260505225635 | 65 | 263 | 8.7 | 12.2 | 0.00 | 0.00 | 0.00 | 70 | 1008.6 |
| 20260505225131 | 65 | 234 | 5.2 | 7.0 | 0.00 | 0.00 | 0.00 | 70 | 1008.6 |
| 20260505224628 | 65 | 220 | 4.3 | 5.2 | 0.00 | 0.00 | 0.00 | 69 | 1008.7 |
| 20260505224126 | 66 | 198 | 4.3 | 7.0 | 0.00 | 0.00 | 0.00 | 69 | 1008.6 |
| 20260505223623 | 66 | 174 | 6.1 | 9.6 | 0.00 | 0.00 | 0.00 | 68 | 1008.6 |
| 20260505223119 | 66 | 246 | 8.7 | 13.0 | 0.00 | 0.00 | 0.00 | 68 | 1008.5 |
| 20260505222615 | 67 | 329 | 4.3 | 7.0 | 0.00 | 0.00 | 0.00 | 67 | 1008.5 |
| 20260505222111 | 67 | 219 | 9.6 | 13.0 | 0.00 | 0.00 | 0.00 | 66 | 1008.2 |
| 20260505221608 | 67 | 149 | 3.5 | 5.2 | 0.00 | 0.00 | 0.00 | 66 | 1008.4 |
| 20260505221105 | 68 | 188 | 5.2 | 7.0 | 0.00 | 0.00 | 0.00 | 66 | 1008.0 |
| 20260505220602 | 68 | 171 | 5.2 | 7.0 | 0.00 | 0.00 | 0.00 | 66 | 1008.2 |
| 20260505220100 | 68 | 73 | 2.6 | 4.3 | 0.00 | 0.00 | 0.00 | 65 | 1008.2 |
| 20260505215558 | 68 | 196 | 7.0 | 11.3 | 0.00 | 0.00 | 0.00 | 65 | 1008.4 |
| 20260505215055 | 68 | 44 | 4.3 | 7.0 | 0.00 | 0.00 | 0.00 | 65 | 1008.2 |
| 20260505214554 | 68 | 216 | 7.0 | 12.2 | 0.00 | 0.00 | 0.00 | 65 | 1008.2 |
| 20260505214050 | 68 | 206 | 5.2 | 7.0 | 0.00 | 0.00 | 0.00 | 65 | 1008.3 |
| 20260505213548 | 68 | 188 | 7.8 | 9.6 | 0.00 | 0.00 | 0.00 | 66 | 1008.3 |
| 20260505213044 | 68 | 229 | 7.8 | 12.2 | 0.00 | 0.00 | 0.00 | 65 | 1008.3 |
| 20260505212540 | 68 | 244 | 4.3 | 5.2 | 0.00 | 0.00 | 0.00 | 66 | 1007.9 |
| 20260505212038 | 68 | 249 | 2.6 | 4.3 | 0.00 | 0.00 | 0.00 | 66 | 1008.1 |
| 20260505211535 | 68 | 223 | 7.8 | 12.2 | 0.00 | 0.00 | 0.00 | 66 | 1008.0 |
| 20260505211031 | 67 | 239 | 5.2 | 7.0 | 0.00 | 0.00 | 0.00 | 67 | 1008.1 |
| 20260505210528 | 68 | 202 | 7.8 | 8.7 | 0.00 | 0.00 | 0.00 | 67 | 1008.1 |
| 20260505210026 | 68 | 199 | 7.0 | 11.3 | 0.00 | 0.00 | 0.00 | 68 | 1008.0 |
| 20260505205523 | 68 | 205 | 3.5 | 5.2 | 0.00 | 0.00 | 0.00 | 67 | 1008.2 |
| 20260505205020 | 68 | 183 | 3.5 | 4.3 | 0.00 | 0.00 | 0.00 | 67 | 1008.3 |
| 20260505204518 | 68 | 128 | 2.6 | 2.6 | 0.00 | 0.00 | 0.00 | 67 | 1008.2 |
| 20260505204015 | 68 | 237 | 1.7 | 2.6 | 0.00 | 0.00 | 0.00 | 67 | 1008.2 |
| 20260505203511 | 69 | 118 | 4.3 | 6.1 | 0.00 | 0.00 | 0.00 | 66 | 1008.4 |
| 20260505203008 | 69 | 117 | 2.6 | 2.6 | 0.00 | 0.00 | 0.00 | 66 | 1007.9 |
| 20260505202505 | 69 | 185 | 4.3 | 6.1 | 0.00 | 0.00 | 0.00 | 67 | 1008.2 |
| 20260505202001 | 68 | 85 | 5.2 | 8.7 | 0.00 | 0.00 | 0.00 | 67 | 1008.3 |
| 20260505201458 | 68 | 263 | 7.0 | 8.7 | 0.00 | 0.00 | 0.00 | 67 | 1008.2 |
| 20260505200955 | 69 | 209 | 6.1 | 8.7 | 0.00 | 0.00 | 0.00 | 66 | 1008.3 |
| 20260505200453 | 70 | 210 | 6.1 | 7.8 | 0.00 | 0.00 | 0.00 | 65 | 1008.3 |
| 20260505195948 | 70 | 86 | 1.7 | 2.6 | 0.00 | 0.00 | 0.00 | 65 | 1008.5 |
| 20260505195446 | 69 | 223 | 6.1 | 8.7 | 0.00 | 0.00 | 0.00 | 66 | 1008.4 |
| 20260505194943 | 71 | 266 | 3.5 | 4.3 | 0.00 | 0.00 | 0.00 | 64 | 1008.4 |
| 20260505194441 | 71 | 231 | 5.2 | 11.3 | 0.00 | 0.00 | 0.00 | 64 | 1008.6 |
| 20260505193940 | 70 | 187 | 6.1 | 7.8 | 0.00 | 0.00 | 0.00 | 64 | 1008.8 |
| 20260505193438 | 70 | 301 | 1.7 | 2.6 | 0.00 | 0.00 | 0.00 | 65 | 1008.7 |
| 20260505192935 | 69 | 155 | 6.1 | 7.8 | 0.00 | 0.00 | 0.00 | 66 | 1008.7 |
| 20260505192434 | 70 | 77 | 1.7 | 1.7 | 0.00 | 0.00 | 0.00 | 66 | 1008.8 |
| 20260505191931 | 69 | 180 | 4.3 | 6.1 | 0.00 | 0.00 | 0.00 | 67 | 1008.9 |
| 20260505191430 | 70 | 189 | 7.8 | 7.8 | 0.00 | 0.00 | 0.00 | 65 | 1009.0 |
| 20260505190926 | 69 | 221 | 4.3 | 7.0 | 0.00 | 0.00 | 0.00 | 68 | 1009.1 |
| 20260505190421 | 68 | 252 | 6.1 | 8.7 | 0.00 | 0.00 | 0.00 | 68 | 1009.4 |
| 20260505185917 | 69 | 164 | 8.7 | 11.3 | 0.00 | 0.00 | 0.00 | 67 | 1009.5 |
| 20260505185415 | 69 | 238 | 5.2 | 7.0 | 0.00 | 0.00 | 0.00 | 66 | 1009.7 |
| 20260505184910 | 68 | 112 | 1.7 | 4.3 | 0.00 | 0.00 | 0.00 | 68 | 1009.3 |
| 20260505184407 | 69 | 122 | 4.3 | 7.0 | 0.00 | 0.00 | 0.00 | 67 | 1009.7 |
| 20260505183904 | 68 | 129 | 6.1 | 7.8 | 0.00 | 0.00 | 0.00 | 67 | 1009.4 |
| 20260505183401 | 69 | 276 | 5.2 | 7.8 | 0.00 | 0.00 | 0.00 | 67 | 1009.4 |
| 20260505182858 | 69 | 199 | 7.8 | 11.3 | 0.00 | 0.00 | 0.00 | 67 | 1009.7 |
| 20260505182355 | 70 | 253 | 4.3 | 6.1 | 0.00 | 0.00 | 0.00 | 66 | 1009.7 |
| 20260505181851 | 69 | 163 | 6.1 | 7.0 | 0.00 | 0.00 | 0.00 | 68 | 1009.8 |
| 20260505181349 | 69 | 164 | 5.2 | 7.8 | 0.00 | 0.00 | 0.00 | 68 | 1009.7 |
| 20260505180845 | 69 | 167 | 6.1 | 7.8 | 0.00 | 0.00 | 0.00 | 67 | 1009.7 |
| 20260505180341 | 70 | 143 | 6.1 | 7.0 | 0.00 | 0.00 | 0.00 | 67 | 1009.8 |
| 20260505175838 | 70 | 153 | 4.3 | 8.7 | 0.00 | 0.00 | 0.00 | 68 | 1009.7 |
| 20260505175334 | 70 | 111 | 2.6 | 2.6 | 0.00 | 0.00 | 0.00 | 68 | 1009.8 |
| 20260505174831 | 69 | 159 | 5.2 | 7.0 | 0.00 | 0.00 | 0.00 | 68 | 1009.9 |
| 20260505174329 | 70 | 251 | 7.8 | 11.3 | 0.00 | 0.00 | 0.00 | 67 | 1009.9 |
| 20260505173824 | 68 | 194 | 6.1 | 7.8 | 0.00 | 0.00 | 0.00 | 70 | 1010.0 |
| 20260505173321 | 68 | 160 | 5.2 | 7.8 | 0.00 | 0.00 | 0.00 | 71 | 1009.8 |
| 20260505172819 | 69 | 298 | 2.6 | 5.2 | 0.00 | 0.00 | 0.00 | 69 | 1009.7 |
| 20260505172316 | 68 | 164 | 8.7 | 11.3 | 0.00 | 0.00 | 0.00 | 71 | 1009.9 |
| 20260505171815 | 68 | 185 | 6.1 | 7.8 | 0.00 | 0.00 | 0.00 | 70 | 1010.0 |
| 20260505171313 | 69 | 190 | 7.0 | 9.6 | 0.00 | 0.00 | 0.00 | 69 | 1009.8 |
| 20260505170809 | 69 | 230 | 2.6 | 4.3 | 0.00 | 0.00 | 0.00 | 69 | 1010.2 |
| 20260505170306 | 70 | 161 | 6.1 | 7.8 | 0.00 | 0.00 | 0.00 | 68 | 1010.0 |
| 20260505165801 | 69 | 261 | 3.5 | 7.0 | 0.00 | 0.00 | 0.00 | 67 | 1010.2 |
| 20260505165257 | 70 | 171 | 5.2 | 7.0 | 0.00 | 0.00 | 0.00 | 66 | 1010.2 |
| 20260505164753 | 71 | 187 | 6.1 | 7.0 | 0.00 | 0.00 | 0.00 | 66 | 1010.0 |
| 20260505164250 | 70 | 114 | 4.3 | 5.2 | 0.00 | 0.00 | 0.00 | 66 | 1010.0 |
| 20260505163749 | 71 | 150 | 4.3 | 6.1 | 0.00 | 0.00 | 0.00 | 65 | 1010.1 |
| 20260505163247 | 70 | 241 | 2.6 | 2.6 | 0.00 | 0.00 | 0.00 | 65 | 1010.1 |
| 20260505162744 | 70 | 205 | 5.2 | 6.1 | 0.00 | 0.00 | 0.00 | 65 | 1010.2 |
| 20260505162241 | 70 | 151 | 2.6 | 2.6 | 0.00 | 0.00 | 0.00 | 65 | 1010.4 |
| 20260505161738 | 70 | 130 | 5.2 | 7.0 | 0.00 | 0.00 | 0.00 | 68 | 1010.6 |
| 20260505161235 | 70 | 184 | 7.0 | 7.8 | 0.00 | 0.00 | 0.00 | 67 | 1010.5 |
| 20260505160732 | 69 | 167 | 4.3 | 7.0 | 0.00 | 0.00 | 0.00 | 68 | 1010.7 |
| 20260505160230 | 71 | 137 | 2.6 | 4.3 | 0.00 | 0.00 | 0.00 | 66 | 1010.6 |
| 20260505153209 | 69 | 163 | 3.5 | 5.2 | 0.00 | 0.00 | 0.00 | 68 | 1010.7 |
| 20260505152706 | 69 | 121 | 4.3 | 5.2 | 0.00 | 0.00 | 0.00 | 68 | 1010.9 |
| 20260505152202 | 68 | 110 | 4.3 | 6.1 | 0.00 | 0.00 | 0.00 | 69 | 1010.9 |
| 20260505151657 | 69 | 105 | 1.7 | 1.7 | 0.00 | 0.00 | 0.00 | 68 | 1010.9 |
| 20260505151156 | 69 | 321 | 2.6 | 4.3 | 0.00 | 0.00 | 0.00 | 69 | 1010.9 |
| 20260505150651 | 69 | 193 | 4.3 | 5.2 | 0.00 | 0.00 | 0.00 | 68 | 1011.1 |
| 20260505150149 | 68 | 237 | 3.5 | 4.3 | 0.00 | 0.00 | 0.00 | 69 | 1011.1 |
| 20260505140617 | 68 | 199 | 4.3 | 6.1 | 0.00 | 0.00 | 0.00 | 67 | 1010.9 |
| 20260505140114 | 69 | 257 | 4.3 | 6.1 | 0.00 | 0.00 | 0.00 | 65 | 1010.8 |
| 20260505125030 | 65 | 207 | 3.5 | 5.2 | 0.00 | 0.00 | 0.00 | 74 | 1010.6 |
| 20260505124527 | 64 | 306 | 3.5 | 4.3 | 0.00 | 0.00 | 0.00 | 76 | 1010.8 |
| 20260505124023 | 64 | 192 | 4.3 | 5.2 | 0.00 | 0.00 | 0.00 | 76 | 1010.7 |
| 20260505123520 | 63 | 249 | 1.7 | 1.7 | 0.00 | 0.00 | 0.00 | 77 | 1010.4 |
| 20260505123016 | 63 | 296 | 2.6 | 2.6 | 0.00 | 0.00 | 0.00 | 77 | 1010.7 |
| 20260505122513 | 62 | 246 | 0.9 | 1.7 | 0.00 | 0.00 | 0.00 | 79 | 1010.6 |
| 20260505122010 | 62 | 238 | 0.9 | 1.7 | 0.00 | 0.00 | 0.00 | 80 | 1010.6 |
| 20260505121506 | 62 | 229 | 1.7 | 2.6 | 0.00 | 0.00 | 0.00 | 80 | 1010.6 |
| 20260505121003 | 61 | 333 | 0.9 | 0.9 | 0.00 | 0.00 | 0.00 | 82 | 1010.7 |
| 20260505120459 | 61 | 308 | 2.6 | 2.6 | 0.00 | 0.00 | 0.00 | 83 | 1010.7 |
| 20260505115958 | 60 | 307 | 1.7 | 1.7 | 0.00 | 0.00 | 0.00 | 83 | 1010.9 |
| 20260505115455 | 59 | 269 | 0.9 | 1.7 | 0.00 | 0.00 | 0.00 | 86 | 1010.9 |
| 20260505114953 | 59 | 321 | 0.0 | 0.0 | 0.00 | 0.00 | 0.00 | 87 | 1010.9 |
| 20260505114449 | 58 | 275 | 1.7 | 2.6 | 0.00 | 0.00 | 0.00 | 89 | 1010.7 |
| 20260505113946 | 57 | 96 | 0.9 | 1.7 | 0.00 | 0.00 | 0.00 | 89 | 1010.7 |
| 20260505113442 | 57 | 10 | 0.9 | 1.7 | 0.00 | 0.00 | 0.00 | 91 | 1010.9 |
| 20260505112937 | 56 | 321 | 0.9 | 0.9 | 0.00 | 0.00 | 0.00 | 91 | 1010.9 |
| 20260505112435 | 56 | 356 | 0.9 | 0.9 | 0.00 | 0.00 | 0.00 | 93 | 1011.0 |
| 20260505111932 | 55 | 343 | 0.9 | 0.9 | 0.00 | 0.00 | 0.00 | 93 | 1010.9 |
| 20260505111426 | 55 | 346 | 0.0 | 0.0 | 0.00 | 0.00 | 0.00 | 94 | 1010.9 |
| 20260505110923 | 55 | 289 | 0.0 | 0.0 | 0.00 | 0.00 | 0.00 | 95 | 1011.1 |
| 20260505110420 | 54 | 353 | 0.0 | 0.9 | 0.00 | 0.00 | 0.00 | 96 | 1011.1 |
| 20260505101850 | 52 | 356 | 0.9 | 0.9 | 0.00 | 0.00 | 0.00 | 97 | 1010.4 |
| 20260505101345 | 52 | 18 | 0.0 | 0.9 | 0.00 | 0.00 | 0.00 | 97 | 1010.1 |
| 20260505100841 | 52 | 16 | 0.0 | 0.0 | 0.00 | 0.00 | 0.00 | 97 | 1010.2 |
| 20260505100338 | 52 | 2 | 0.0 | 0.0 | 0.00 | 0.00 | 0.00 | 97 | 1009.9 |
| 20260505095834 | 52 | 54 | 0.9 | 1.7 | 0.00 | 0.00 | 0.00 | 97 | 1010.0 |
| 20260505095332 | 52 | 10 | 0.0 | 0.0 | 0.00 | 0.00 | 0.00 | 97 | 1009.9 |
| 20260505094827 | 52 | 13 | 0.0 | 0.0 | 0.00 | 0.00 | 0.00 | 97 | 1009.9 |
| 20260505094325 | 52 | 12 | 0.0 | 0.9 | 0.00 | 0.00 | 0.00 | 97 | 1010.1 |
| 20260505093820 | 52 | 24 | 0.0 | 0.0 | 0.00 | 0.00 | 0.00 | 97 | 1009.8 |
| 20260505093318 | 52 | 3 | 0.0 | 0.0 | 0.00 | 0.00 | 0.00 | 97 | 1010.0 |
| 20260505092814 | 52 | 3 | 0.0 | 0.0 | 0.00 | 0.00 | 0.00 | 97 | 1009.9 |
| 20260505092313 | 52 | 6 | 0.0 | 0.0 | 0.00 | 0.00 | 0.00 | 97 | 1010.0 |
| 20260505091810 | 52 | 7 | 0.0 | 0.0 | 0.00 | 0.00 | 0.00 | 97 | 1009.9 |
| 20260505091308 | 52 | 7 | 0.9 | 0.9 | 0.00 | 0.00 | 0.00 | 97 | 1010.0 |
| 20260505090806 | 52 | 4 | 0.0 | 0.0 | 0.00 | 0.00 | 0.00 | 97 | 1010.2 |
| 20260505090304 | 52 | 359 | 0.0 | 0.0 | 0.00 | 0.00 | 0.00 | 97 | 1010.0 |
| 20260505085801 | 52 | 351 | 0.9 | 0.9 | 0.00 | 0.00 | 0.00 | 97 | 1009.8 |
| 20260505085259 | 52 | 1 | 0.0 | 0.0 | 0.00 | 0.00 | 0.00 | 96 | 1009.9 |
| 20260505084755 | 52 | 6 | 0.0 | 0.0 | 0.00 | 0.00 | 0.00 | 96 | 1009.8 |
| 20260505084255 | 52 | 5 | 0.0 | 0.0 | 0.00 | 0.00 | 0.00 | 96 | 1009.8 |
| 20260505083751 | 53 | 16 | 0.0 | 0.0 | 0.00 | 0.00 | 0.00 | 96 | 1009.9 |
| 20260505083248 | 53 | 23 | 0.0 | 0.0 | 0.00 | 0.00 | 0.00 | 96 | 1009.8 |
| 20260505082744 | 53 | 42 | 0.9 | 0.9 | 0.00 | 0.00 | 0.00 | 96 | 1009.7 |
| 20260505082242 | 53 | 63 | 0.0 | 0.9 | 0.00 | 0.00 | 0.00 | 96 | 1009.8 |
| 20260505081737 | 53 | 122 | 0.9 | 1.7 | 0.00 | 0.00 | 0.00 | 96 | 1010.0 |
| 20260505081235 | 53 | 36 | 0.9 | 0.9 | 0.00 | 0.00 | 0.00 | 96 | 1010.1 |
| 20260505080732 | 53 | 53 | 1.7 | 1.7 | 0.00 | 0.00 | 0.00 | 96 | 1010.0 |
| 20260505080227 | 53 | 49 | 0.9 | 1.7 | 0.00 | 0.00 | 0.00 | 95 | 1010.0 |
| 20260505075723 | 53 | 19 | 0.9 | 0.9 | 0.00 | 0.00 | 0.00 | 95 | 1009.9 |
| 20260505075221 | 53 | 82 | 0.0 | 0.0 | 0.00 | 0.00 | 0.00 | 95 | 1009.9 |
| 20260505074718 | 53 | 48 | 0.9 | 0.9 | 0.00 | 0.00 | 0.00 | 95 | 1009.8 |
| 20260505074215 | 53 | 32 | 0.0 | 0.9 | 0.00 | 0.00 | 0.00 | 95 | 1009.8 |
| 20260505073712 | 53 | 103 | 1.7 | 1.7 | 0.00 | 0.00 | 0.00 | 95 | 1009.9 |
| 20260505073210 | 53 | 32 | 0.9 | 0.9 | 0.00 | 0.00 | 0.00 | 95 | 1010.1 |
| 20260505072706 | 53 | 83 | 1.7 | 1.7 | 0.00 | 0.00 | 0.00 | 95 | 1009.9 |
| 20260505072202 | 53 | 73 | 2.6 | 2.6 | 0.00 | 0.00 | 0.00 | 95 | 1009.8 |
| 20260505071658 | 53 | 48 | 0.0 | 0.0 | 0.00 | 0.00 | 0.00 | 95 | 1010.0 |
| 20260505071156 | 53 | 78 | 0.0 | 0.9 | 0.00 | 0.00 | 0.00 | 95 | 1010.0 |
| 20260505070653 | 53 | 175 | 2.6 | 2.6 | 0.00 | 0.00 | 0.00 | 95 | 1009.9 |
| 20260505070149 | 53 | 130 | 2.6 | 4.3 | 0.00 | 0.00 | 0.00 | 94 | 1009.9 |
| 20260505065645 | 53 | 161 | 2.6 | 2.6 | 0.00 | 0.00 | 0.00 | 94 | 1010.0 |
| 20260505065142 | 53 | 134 | 2.6 | 2.6 | 0.00 | 0.00 | 0.00 | 94 | 1009.9 |
| 20260505064639 | 53 | 318 | 1.7 | 2.6 | 0.00 | 0.00 | 0.00 | 94 | 1010.0 |
| 20260505064137 | 53 | 335 | 0.0 | 0.9 | 0.00 | 0.00 | 0.00 | 94 | 1009.9 |
| 20260505063634 | 53 | 301 | 1.7 | 2.6 | 0.00 | 0.00 | 0.00 | 94 | 1010.0 |
| 20260505063130 | 53 | 84 | 0.9 | 0.9 | 0.00 | 0.00 | 0.00 | 94 | 1010.2 |
| 20260505062626 | 53 | 171 | 2.6 | 2.6 | 0.00 | 0.00 | 0.00 | 94 | 1010.0 |
| 20260505062124 | 53 | 155 | 1.7 | 4.3 | 0.00 | 0.00 | 0.00 | 94 | 1010.1 |
| 20260505061621 | 53 | 179 | 0.9 | 1.7 | 0.00 | 0.00 | 0.00 | 93 | 1010.1 |
| 20260505061119 | 53 | 86 | 0.0 | 0.9 | 0.00 | 0.00 | 0.00 | 93 | 1010.2 |
| 20260505060616 | 54 | 139 | 3.5 | 4.3 | 0.00 | 0.00 | 0.00 | 93 | 1010.1 |
| 20260505060113 | 54 | 151 | 1.7 | 1.7 | 0.00 | 0.00 | 0.00 | 93 | 1010.2 |
| 20260505055608 | 54 | 112 | 2.6 | 2.6 | 0.00 | 0.00 | 0.00 | 93 | 1010.4 |
| 20260505055105 | 54 | 85 | 0.9 | 0.9 | 0.00 | 0.00 | 0.00 | 93 | 1010.3 |
| 20260505054602 | 54 | 141 | 4.3 | 5.2 | 0.00 | 0.00 | 0.00 | 93 | 1010.4 |
| 20260505054101 | 54 | 158 | 1.7 | 1.7 | 0.00 | 0.00 | 0.00 | 92 | 1010.4 |
| 20260505053557 | 54 | 121 | 2.6 | 4.3 | 0.00 | 0.00 | 0.00 | 92 | 1010.5 |
| 20260505053054 | 54 | 57 | 0.9 | 1.7 | 0.00 | 0.00 | 0.00 | 92 | 1010.6 |
| 20260505052551 | 54 | 66 | 1.7 | 1.7 | 0.00 | 0.00 | 0.00 | 92 | 1010.6 |
| 20260505052049 | 54 | 59 | 0.9 | 0.9 | 0.00 | 0.00 | 0.00 | 91 | 1010.4 |
| 20260505051545 | 54 | 330 | 1.7 | 2.6 | 0.00 | 0.00 | 0.00 | 91 | 1010.5 |
| 20260505051043 | 54 | 53 | 0.0 | 0.0 | 0.00 | 0.00 | 0.00 | 90 | 1010.5 |
| 20260505050541 | 54 | 159 | 2.6 | 2.6 | 0.00 | 0.00 | 0.00 | 90 | 1010.4 |
| 20260505041509 | 55 | 88 | 0.0 | 0.9 | 0.00 | 0.00 | 0.00 | 85 | 1010.7 |
| 20260505041006 | 55 | 136 | 2.6 | 2.6 | 0.00 | 0.00 | 0.00 | 85 | 1010.9 |
| 20260505040503 | 56 | 233 | 0.9 | 1.7 | 0.00 | 0.00 | 0.00 | 84 | 1010.7 |
| 20260505040000 | 56 | 128 | 0.9 | 0.9 | 0.00 | 0.00 | 0.00 | 83 | 1010.6 |
| 20260505035456 | 56 | 136 | 0.9 | 1.7 | 0.00 | 0.00 | 0.00 | 82 | 1010.6 |
| 20260505034953 | 56 | 132 | 2.6 | 4.3 | 0.00 | 0.00 | 0.00 | 81 | 1010.7 |
| 20260505034450 | 57 | 25 | 1.7 | 2.6 | 0.00 | 0.00 | 0.00 | 79 | 1010.7 |
| 20260505033947 | 57 | 331 | 0.9 | 0.9 | 0.00 | 0.00 | 0.00 | 78 | 1010.5 |
| 20260505033444 | 57 | 19 | 1.7 | 2.6 | 0.00 | 0.00 | 0.00 | 77 | 1010.7 |
| 20260505032942 | 58 | 315 | 0.9 | 0.9 | 0.00 | 0.00 | 0.00 | 76 | 1010.7 |
| 20260505032439 | 58 | 325 | 1.7 | 1.7 | 0.00 | 0.00 | 0.00 | 76 | 1010.8 |
| 20260505031935 | 58 | 224 | 1.7 | 1.7 | 0.00 | 0.00 | 0.00 | 76 | 1010.8 |
| 20260505031432 | 57 | 219 | 4.3 | 6.1 | 0.00 | 0.00 | 0.00 | 76 | 1010.9 |
| 20260505030929 | 57 | 294 | 1.7 | 2.6 | 0.00 | 0.00 | 0.00 | 77 | 1010.8 |
| 20260505030425 | 57 | 225 | 2.6 | 2.6 | 0.00 | 0.00 | 0.00 | 77 | 1010.7 |
| 20260505025920 | 57 | 323 | 0.9 | 1.7 | 0.00 | 0.00 | 0.00 | 78 | 1010.8 |
| 20260505025418 | 56 | 276 | 2.6 | 4.3 | 0.00 | 0.00 | 0.00 | 79 | 1010.9 |
| 20260505024917 | 56 | 330 | 0.9 | 0.9 | 0.00 | 0.00 | 0.00 | 80 | 1010.9 |
| 20260505024414 | 56 | 277 | 1.7 | 1.7 | 0.00 | 0.00 | 0.00 | 80 | 1011.0 |
| 20260505023911 | 57 | 334 | 0.0 | 0.0 | 0.00 | 0.00 | 0.00 | 79 | 1010.9 |
| 20260505023408 | 57 | 337 | 0.0 | 0.9 | 0.00 | 0.00 | 0.00 | 79 | 1010.7 |
| 20260505022905 | 57 | 326 | 0.9 | 0.9 | 0.00 | 0.00 | 0.00 | 79 | 1011.0 |
| 20260505022403 | 56 | 290 | 1.7 | 1.7 | 0.00 | 0.00 | 0.00 | 80 | 1010.9 |
| 20260505021859 | 56 | 286 | 2.6 | 4.3 | 0.00 | 0.00 | 0.00 | 80 | 1011.0 |
| 20260505021356 | 56 | 330 | 0.9 | 0.9 | 0.00 | 0.00 | 0.00 | 80 | 1010.9 |
| 20260505020852 | 56 | 319 | 0.9 | 1.7 | 0.00 | 0.00 | 0.00 | 80 | 1011.0 |
| 20260505020347 | 56 | 269 | 0.0 | 1.7 | 0.00 | 0.00 | 0.00 | 79 | 1011.1 |
| 20260505015844 | 57 | 212 | 3.5 | 5.2 | 0.00 | 0.00 | 0.00 | 78 | 1010.9 |